Canby, MN

7:43 PM CDT on May 22, 2017 (GMT -0500)
Canby

Weather History for KCNB - October, 2011

Change the Weather History Date:

Sunday, October 30, 2011

  Actual Average (KMML) Record (KMML)
Temperature  
Mean Temperature 42 °F -  
Max Temperature 46 °F 50 °F 88 °F (1950)
Min Temperature 37 °F 31 °F 13 °F (1991)
Degree Days  
Heating Degree Days 24    
Moisture  
Dew Point 33 °F    
Average Humidity 69    
Maximum Humidity 83    
Minimum Humidity 52    
Precipitation  
Precipitation 0.00 in - - ()
Sea Level Pressure  
Sea Level Pressure 29.89 in    
Wind  
Wind Speed 11 mph (WNW)    
Max Wind Speed 22 mph    
Max Gust Speed 32 mph    
Visibility 10 miles    
Events Rain    
Averages and records for this station are not official NWS values.
T = Trace of Precipitation, MM = Missing Value Source: NWS Daily Summary

Daily Weather History Graph

Daily Weather History Graph

Search for Another Location

Airport or City:

Trip Planner

Search our weather history database for the weather conditions in past years. The results will help you decide how hot, cold, wet, or windy it might be!

Date:

Astronomy

Oct. 30, 2011 Rise Set
Actual Time 7:59 AM CDT 6:16 PM CDT
Civil Twilight 7:29 AM CDT 6:47 PM CDT
Nautical Twilight 6:55 AM CDT 7:21 PM CDT
Astronomical Twilight 6:21 AM CDT 7:55 PM CDT
Moon 12:27 PM CDT (10/30) 9:39 PM CDT (10/30)
Length of Visible Light 11h 17m
Length of Day
10h 16m
Waxing Crescent, 20% of the Moon is Illuminated
Oct 30
Waxing Crescent
Nov 2
First Quarter
Nov 10
Full
Nov 18
Last Quarter
Nov 25
New

Hourly Weather History & Observations

Time (CDT) Temp. Windchill Dew Point Humidity Pressure Visibility Wind Dir Wind Speed Gust Speed Precip Events Conditions
12:14 AM 38.5 °F - 27.5 °F 65% 29.80 in 10.0 mi Calm Calm - N/A   Mostly Cloudy
12:35 AM 38.7 °F 36.3 °F 27.1 °F 63% 29.79 in 10.0 mi ESE 3.5 mph - N/A   Overcast
12:55 AM 37.8 °F 34.2 °F 28.4 °F 69% 29.79 in 10.0 mi SSE 4.6 mph - N/A   Overcast
1:15 AM 39.9 °F 37.8 °F 27.7 °F 62% 29.79 in 10.0 mi SSW 3.5 mph - N/A   Mostly Cloudy
1:35 AM 41.9 °F 36.3 °F 29.1 °F 61% 29.80 in 10.0 mi West 9.2 mph - N/A   Scattered Clouds
1:55 AM 43.2 °F 39.0 °F 30.7 °F 62% 29.80 in 10.0 mi WNW 6.9 mph - N/A   Mostly Cloudy
2:15 AM 44.4 °F 39.5 °F 31.6 °F 61% 29.80 in 10.0 mi NNW 9.2 mph - N/A   Overcast
2:35 AM 45.9 °F 41.7 °F 32.5 °F 60% 29.79 in 10.0 mi NNW 8.1 mph - N/A   Overcast
3:15 AM 44.1 °F 39.0 °F 37.9 °F 79% 29.80 in 10.0 mi WNW 9.2 mph - N/A Rain Light Rain
3:35 AM 44.4 °F 38.2 °F 39.2 °F 82% 29.80 in 10.0 mi West 12.7 mph - N/A   Overcast
3:55 AM 43.7 °F 37.7 °F 37.9 °F 80% 29.81 in 10.0 mi WNW 11.5 mph - N/A   Scattered Clouds
4:55 AM 43.9 °F 36.2 °F 38.8 °F 82% 29.82 in 10.0 mi West 17.3 mph - N/A   Overcast
5:15 AM 44.1 °F 36.8 °F 38.8 °F 82% 29.82 in 10.0 mi WNW 16.1 mph 21.9 mph N/A   Overcast
5:35 AM 44.2 °F 37.3 °F 39.2 °F 82% 29.83 in 10.0 mi WNW 15.0 mph 21.9 mph N/A   Overcast
5:55 AM 44.6 °F 37.8 °F 38.8 °F 80% 29.83 in 10.0 mi West 15.0 mph 20.7 mph N/A   Overcast
6:15 AM 44.2 °F 36.7 °F 38.5 °F 80% 29.84 in 10.0 mi West 17.3 mph 21.9 mph N/A   Overcast
6:35 AM 43.7 °F 35.2 °F 37.9 °F 80% 29.84 in 10.0 mi West 20.7 mph 25.3 mph N/A   Overcast
6:55 AM 43.2 °F 35.0 °F 37.4 °F 80% 29.85 in 10.0 mi WNW 18.4 mph 25.3 mph N/A   Overcast
7:15 AM 42.4 °F 34.7 °F 37.4 °F 82% 29.85 in 10.0 mi WNW 16.1 mph 23.0 mph N/A   Overcast
7:35 AM 41.2 °F 34.1 °F 36.3 °F 83% 29.86 in 10.0 mi WNW 12.7 mph - N/A   Mostly Cloudy
7:55 AM 40.6 °F 32.7 °F 35.6 °F 82% 29.87 in 10.0 mi WNW 15.0 mph - N/A   Mostly Cloudy
8:15 AM 40.8 °F 33.7 °F 35.2 °F 80% 29.87 in 10.0 mi WNW 12.7 mph - N/A   Mostly Cloudy
8:34 AM 40.6 °F 33.0 °F 35.1 °F 80% 29.88 in 10.0 mi West 13.8 mph 19.6 mph N/A   Scattered Clouds
8:55 AM 41.9 °F 33.1 °F 35.1 °F 77% 29.88 in 10.0 mi West 19.6 mph 25.3 mph N/A   Clear
9:15 AM 41.9 °F 33.7 °F 34.3 °F 75% 29.88 in 10.0 mi WNW 17.3 mph 25.3 mph N/A   Mostly Cloudy
9:35 AM 41.4 °F 33.3 °F 33.4 °F 73% 29.89 in 10.0 mi WNW 16.1 mph 25.3 mph N/A   Mostly Cloudy
9:54 AM 41.2 °F 32.4 °F 32.9 °F 72% 29.89 in 10.0 mi WNW 18.4 mph 25.3 mph N/A   Overcast
10:15 AM 41.5 °F 32.9 °F 32.7 °F 71% 29.89 in 10.0 mi WNW 18.4 mph 23.0 mph N/A   Overcast
10:35 AM 42.1 °F 33.9 °F 32.4 °F 68% 29.89 in 10.0 mi WNW 17.3 mph 25.3 mph N/A   Overcast
10:55 AM 43.0 °F 35.7 °F 32.5 °F 67% 29.89 in 10.0 mi WNW 15.0 mph 25.3 mph N/A   Overcast
11:15 AM 44.2 °F 37.0 °F 32.5 °F 63% 29.90 in 10.0 mi WNW 16.1 mph 24.2 mph N/A   Overcast
11:35 AM 45.9 °F 38.5 °F 31.6 °F 58% 29.89 in 10.0 mi NW 18.4 mph 26.5 mph N/A   Mostly Cloudy
11:55 AM 46.6 °F - 31.1 °F 55% 29.89 in 10.0 mi NW 21.9 mph 32.2 mph N/A   Mostly Cloudy
12:35 PM 46.2 °F 39.3 °F 29.7 °F 53% 29.90 in 10.0 mi NW 17.3 mph 26.5 mph N/A   Overcast
12:55 PM 46.6 °F - 29.8 °F 52% 29.89 in 10.0 mi NW 20.7 mph 28.8 mph N/A   Overcast
1:35 PM 45.9 °F 39.1 °F 30.4 °F 55% 29.89 in 10.0 mi NW 16.1 mph 24.2 mph N/A   Overcast
1:55 PM 45.7 °F 39.1 °F 31.6 °F 58% 29.89 in 10.0 mi WNW 15.0 mph - N/A   Overcast
2:15 PM 45.5 °F 37.3 °F 30.7 °F 56% 29.90 in 10.0 mi WNW 21.9 mph 28.8 mph N/A   Overcast
2:34 PM 44.8 °F 36.6 °F 31.1 °F 59% 29.90 in 10.0 mi WNW 20.7 mph 27.6 mph N/A   Overcast
2:55 PM 45.5 °F 37.6 °F 30.4 °F 56% 29.90 in 10.0 mi WNW 20.7 mph 27.6 mph N/A   Overcast
3:34 PM 45.0 °F 37.9 °F 31.1 °F 58% 29.91 in 10.0 mi NW 16.1 mph 27.6 mph N/A   Overcast
3:55 PM 44.6 °F 38.4 °F 31.5 °F 60% 29.92 in 10.0 mi NW 12.7 mph 23.0 mph N/A   Overcast
4:15 PM 44.1 °F 36.5 °F 31.5 °F 61% 29.94 in 10.0 mi WNW 17.3 mph 26.5 mph N/A   Overcast
4:35 PM 43.7 °F 36.3 °F 32.0 °F 63% 29.95 in 10.0 mi WNW 16.1 mph 24.2 mph N/A   Overcast
4:55 PM 43.7 °F 37.3 °F 32.0 °F 63% 29.95 in 10.0 mi NW 12.7 mph - N/A   Overcast
5:15 PM 43.3 °F 37.2 °F 32.0 °F 64% 29.96 in 10.0 mi NW 11.5 mph - N/A   Overcast
5:34 PM 43.3 °F 36.5 °F 32.2 °F 65% 29.96 in 10.0 mi NW 13.8 mph 20.7 mph N/A   Overcast
6:15 PM 42.8 °F 35.8 °F 32.0 °F 66% 29.98 in 10.0 mi NW 13.8 mph - N/A   Overcast
6:35 PM 43.0 °F 36.4 °F 32.0 °F 65% 29.98 in 10.0 mi NW 12.7 mph - N/A   Overcast
6:55 PM 42.8 °F 36.6 °F 32.0 °F 66% 29.98 in 10.0 mi NW 11.5 mph 17.3 mph N/A   Overcast
7:15 PM 42.3 °F 36.3 °F 32.0 °F 67% 29.99 in 10.0 mi NW 10.4 mph - N/A   Overcast
7:34 PM 42.1 °F 37.1 °F 32.0 °F 67% 30.00 in 10.0 mi NW 8.1 mph - N/A   Overcast
7:55 PM 41.9 °F 36.9 °F 32.4 °F 69% 30.00 in 10.0 mi NW 8.1 mph - N/A   Overcast
8:15 PM 41.7 °F 37.3 °F 32.5 °F 70% 30.00 in 10.0 mi NW 6.9 mph - N/A   Overcast
8:35 PM 41.4 °F 36.8 °F 32.7 °F 71% 30.00 in 10.0 mi WNW 6.9 mph - N/A   Overcast
8:55 PM 40.6 °F 34.3 °F 32.0 °F 71% 30.00 in 10.0 mi WNW 10.4 mph - N/A   Overcast
9:15 PM 40.1 °F 34.1 °F 31.8 °F 72% 30.00 in 10.0 mi WNW 9.2 mph - N/A   Overcast
9:35 PM 39.6 °F 33.0 °F 31.5 °F 73% 30.01 in 10.0 mi WNW 10.4 mph - N/A   Overcast
9:55 PM 39.2 °F 33.6 °F 31.6 °F 74% 30.01 in 10.0 mi West 8.1 mph - N/A   Overcast
10:15 PM 36.9 °F 31.4 °F 30.7 °F 79% 30.01 in 10.0 mi West 6.9 mph - N/A   Overcast
10:35 PM 33.8 °F 30.8 °F 29.5 °F 84% 30.01 in 10.0 mi West 3.5 mph - N/A   Scattered Clouds
10:55 PM 32.9 °F 26.7 °F 29.3 °F 87% 30.01 in 10.0 mi West 6.9 mph - N/A   Clear
11:15 PM 32.2 °F 25.8 °F 28.9 °F 88% 30.02 in 10.0 mi West 6.9 mph - N/A   Clear
11:34 PM 32.9 °F 26.7 °F 29.3 °F 87% 30.02 in 10.0 mi West 6.9 mph - N/A   Clear
11:55 PM 32.2 °F 25.8 °F 29.1 °F 88% 30.02 in 10.0 mi West 6.9 mph - N/A   Clear